SCP
0 0 0 0 0 0 0 0 0 0 0 0 0 0 0 0 0 0 0 0 0 0 0 0 0 0 0 0 0 0 0 0 0 0 0 0 0 0 0 0 0 0 0 0
0 0 0 0 0 0 0 0 0 0 0 0 0 0 0 0 0 0 0 0 0 0 0 0 0 0 0 0 0 0 0 0 0 0 0 0 0 0 0 0 0 0 0 0
0 0 0 0 0 0 0 0 0 0 0 0 0 0 0 0 0 0 0 0 0 0 0 0 0 0 0 0 0 0 0 0 0 0 0 0 0 0 0 0 0 0 0 0
0 0 0 0 0 0 0 0 0 0 0 0 0 0 0 0 0 0 0 0 0 0 0 0 0 0 0 0 0 0 0 0 0 0 0 0 0 0 0 0 0 0 0 0
0 0 0 0 0 0 0 0 0 0 0 0 0 0 0 0 0 0 0 0 0 0 0 0 0 0 0 0 0 0 0 0 0 0 0 0 0 0 0 0 0 0 0 0
0 0 0 0 0 0 0 0 0 0 0 0 0 0 0 0 0 0 0 0 0 0 0 0 0 0 0 0 0 0 0 0 0 0 0 0 0 0 0 0 0 0 0 0
0 0 0 0 0 0 0 0 0 0 0 0 0 0 0 0 0 0 0 0 0 0 0 0 0 0 0 0 0 0 0 0 0 0 0 0 0 0 0 0 0 0 0 0
0 0 0 0 0 0 0 0 0 0 0 0 0 0 0 0 0 0 0 0 0 0 0 0 0 0 0 0 0 0 0 0 0 0 0 0 0 0 0 0 0 0 0 0
0 0 0 0 0 0 0 0 0 0 0 0 0 0 0 0 0 0 0 0 0 0 0 0 0 0 0 0 0 0 0 0 0 0 0 0 0 0 0 0 0 0 0 0
0 0 0 0 0 0 0 0 0 0 0 0 0 0 0 0 0 0 0 0 0 0 0 0 0 0 0 0 0 0 0 0 0 0 0 0 0 0 0 0 0 0 0 0
0 0 0 0 0 0 0 0 0 0 0 0 0 0 0 0 0 0 0 0 0 0 0 0 0 0 0 0 0 0 0 0 0 0 0 0 0 0 0 0 0 0 0 0
0 0 0 0 0 0 0 0 0 0 0 0 0 0 0 0 0 0 0 0 0 0 0 0 0 0 0 0 0 0 0 0 0 0 0 0 0 0 0 0 0 0 0 0
0 0 0 0 0 0 0 0 0 0 0 0 0 0 0 0 0 0 0 0 0 0 0 0 0 0 0 0 0 0 0 0 0 0 0 0 0 0 0 0 0 0 0 0
0 0 0 0 0 0 0 0 0 0 0 0 0 0 0 0 0 0 0 0 0 0 0 0 0 0 0 0 0 0 0 0 0 0 0 0 0 0 0 0 0 0 0 0
0 0 0 0 0 0 0 0 0 0 0 0 0 0 0 0 0 0 0 0 0 0 0 0 0 0 0 0 0 0 0 0 0 0 0 0 0 0 0 0 0 0 0 0
0 0 0 0 0 0 0 0 0 0 0 0 0 0 0 0 0 0 0 0 0 0 0 0 0 0 0 0 0 0 0 0 0 0 0 0 0 0 0 0 0 0 0 0
0 0 0 -0 0 0 0 0 0 0 0 0 0 0 0 0 0 0 0 0 0 0 0 0 0 0 0 0 0 0 0 0 0 0 0 0 0 0 0 0 0 0 0 0
0 0 0 0 0 0 0 0 0 0 0 0 0 0 0 0 0 0 0 0 0 0 0 0 0 0 0 0 0 0 0 0 0 0 0 0 0 0 0 0 0 0 0 0
0 0 0 0 0 0 0 0 0 0 0 0 0 0 0 0 0 0 0 0 0 0 0 0 0 0 0 0 0 0 0 0 0 0 0 0 0 0 0 0 0 0 0 0
0 0 0 0 0 0 0 0 0 0 0 0 0 0 0 0 0 0 0 0 0 0 0 0 0 0 0 0 0 0 0 0 0 0 0 0 0 0 0 0 0 0 0 0
0 0 -0 0 0 0 0 0 0 0 0 0 0 0 0 0 0 0 0 0 0 0 0 0 0 0 0 0 0 0 0 0 0 0 0 0 0 0 0 0 0 0 0 0
0 0 -0 -0 0 0 0 0 0 0 0 0 0 0 0 0 0 0 0 0 0 0 0 0 0 0 0 0 0 0 0 0 0 0 0 0 0 0 0 0 0 0 0 0
0 0 0 0 0 0 -0 0 0 0 0 0 0 0 0 0 0 0 0 0 0 0 0 0 0 0 0 0 0 0 0 0 0 0 0 0 0 0 0 0 0 0 0 0
0 0 0 0 0 0 0 -0 0 0 0 0 0 0 0 0 0 0 0 0 0 0 0 0 0 0 0 0 0 0 0 0 0 0 0 0 0 0 0 0 0 0 0 0
-0 -0 -0 0 0 0 0 -0 -0 0 0 0 0 -0 0 0 0 0 0 0 0 0 0 0 0 0 0 0 0 0 0 0 0 0 0 0 0 0 0 0 0 0 0 0
-0 -0 -0 -0 0 -0 -0 -0 -0 0 -0 -0 -0 -0 -0 -0 0 0 0 0 0 0 0 0 0 0 0 0 0 0 0 0 0 0 0 0 0 0 0 0 0 0 0 0
Wind_Speed_500mb
9 7 24 26 13 19 21 9 2 3 4 14 12 17 11 23 28 25 20 20 22 18 15 13 10 9 9 11 12 12 15 22 27 23 17 9 9 11 13 8 11 16 19 18
5 26 4 3 5 4 26 20 1 8 13 12 12 14 9 10 12 14 17 18 22 21 16 17 16 15 14 13 15 17 21 30 26 20 15 10 7 9 9 8 5 8 10 14
9 5 16 9 7 16 25 35 28 6 8 19 17 6 6 6 16 16 16 16 20 22 23 25 25 23 24 24 24 26 29 28 21 15 12 11 10 6 6 8 11 13 17 20
11 12 8 9 19 13 27 14 40 25 13 7 2 6 9 10 10 13 20 22 24 25 26 30 32 32 31 32 30 29 30 30 24 18 14 10 8 9 12 11 13 14 17 21
10 10 19 15 19 11 11 13 33 35 32 12 14 2 4 22 15 15 30 28 28 29 30 33 36 37 38 37 35 36 33 32 30 24 20 17 13 13 13 12 14 18 21 26
7 3 10 18 11 16 10 14 16 7 7 13 19 17 11 18 32 19 30 40 43 40 38 36 36 37 37 35 32 31 29 30 25 19 16 12 12 11 9 12 17 21 25 28
7 8 4 7 13 11 13 12 7 10 8 9 5 17 12 13 18 27 40 51 49 49 46 44 41 38 35 31 29 25 21 20 18 12 10 9 11 12 15 19 24 27 28 30
11 8 17 10 11 11 36 23 9 14 13 13 9 14 7 5 13 44 62 57 49 48 47 44 42 39 33 28 23 19 15 12 11 9 11 13 16 18 22 25 27 31 33 34
11 8 3 4 5 5 12 21 8 11 2 6 7 5 4 5 14 41 53 60 58 53 48 47 44 38 32 25 20 13 9 7 8 10 13 16 19 22 24 27 29 31 32 32
5 5 3 4 4 10 6 12 5 3 11 8 4 9 11 13 22 25 38 53 59 56 53 48 41 34 29 22 15 10 6 6 9 11 14 17 20 22 25 27 29 31 32 33
7 4 1 6 10 13 5 6 7 6 4 7 6 10 5 28 33 37 47 49 63 62 53 47 40 33 26 18 10 4 4 8 10 12 15 19 22 25 28 30 31 31 32 31
7 4 6 12 8 4 6 10 8 6 5 2 1 8 6 7 22 36 40 53 63 60 55 48 42 34 25 15 7 1 5 9 12 15 18 21 23 26 28 30 31 31 28 25
10 7 6 1 5 8 7 8 9 9 5 4 6 10 10 19 31 42 49 61 64 60 56 50 43 34 23 13 5 5 8 11 14 16 19 22 25 27 30 31 32 29 26 23
3 1 5 10 3 6 9 11 14 11 6 11 8 9 2 13 22 37 53 68 68 63 58 53 45 34 23 14 8 9 12 13 16 18 20 23 26 28 31 32 30 27 24 23
1 6 4 1 8 2 5 15 19 16 11 13 15 17 11 30 27 39 44 60 66 63 60 54 47 36 26 17 13 13 15 17 20 21 23 26 29 32 33 33 31 27 25 24
2 3 3 2 7 6 5 11 19 11 9 3 7 10 5 28 35 49 65 72 73 71 64 57 45 36 28 20 16 17 20 22 24 25 27 29 32 35 36 34 31 29 28 27
1 6 3 6 1 3 3 14 12 9 8 15 11 13 13 9 34 54 68 77 74 71 65 56 46 36 28 22 19 22 25 27 28 29 30 31 34 37 38 36 34 34 33 33
2 4 4 4 4 3 5 1 3 4 5 7 3 5 12 12 22 49 66 76 70 65 58 49 40 35 31 27 23 27 30 31 31 31 33 35 38 41 40 39 38 39 39 39
2 6 3 6 2 8 3 5 9 8 8 13 11 9 14 29 30 21 55 66 62 57 47 38 34 34 31 27 29 34 35 35 34 33 35 37 42 42 42 41 40 41 42 42
10 5 3 7 9 7 5 3 3 2 9 19 19 20 28 35 8 10 59 57 47 38 36 37 38 35 32 31 36 38 37 37 35 35 37 41 43 43 42 41 41 43 43 42
6 7 7 4 2 12 8 4 1 12 9 11 25 38 52 13 16 29 54 51 45 40 39 39 37 35 33 38 38 39 38 36 34 37 40 43 44 43 43 42 40 42 43 44
4 6 2 4 8 9 14 8 12 5 2 5 25 35 51 29 19 34 55 52 47 41 36 33 33 33 37 38 38 39 39 33 37 39 44 46 46 45 43 43 43 44 44 46
5 9 5 12 10 6 27 6 14 3 6 8 24 34 41 33 27 38 51 46 38 31 25 26 30 34 36 36 39 41 34 36 38 44 47 48 48 47 46 45 44 44 44 47
7 9 5 4 5 21 28 36 20 13 9 9 13 28 38 33 29 33 38 39 35 27 22 23 30 34 35 34 39 38 35 37 42 47 48 50 52 50 49 47 45 45 46 49
7 13 6 11 20 24 34 39 38 25 13 6 13 20 33 38 34 37 40 36 26 20 23 29 33 34 35 34 36 34 36 40 45 49 51 51 51 51 50 49 47 47 47 50
25 15 11 11 20 11 10 18 38 47 37 25 20 28 35 37 34 37 37 32 27 26 30 35 35 37 35 34 33 33 38 43 46 49 50 50 51 53 53 51 49 49 49 50
Wind_Direction_500mb
188 185 205 194 217 213 201 156 9 70 125 74 72 97 71 110 105 116 117 116 118 108 100 110 125 148 181 199 197 179 167 171 190 195 215 229 253 260 278 308 317 319 317 321
164 227 203 157 191 194 175 189 338 94 26 86 107 80 79 63 97 127 148 140 121 118 122 118 119 124 135 140 148 156 161 164 179 192 201 214 218 252 280 294 319 354 18 26
188 173 181 185 186 190 196 192 177 196 83 50 120 97 161 83 119 137 138 140 134 135 131 124 123 122 119 123 128 134 142 144 153 168 174 200 210 181 119 79 65 42 18 5
228 246 164 166 224 197 210 189 185 164 164 182 321 201 206 177 179 168 161 163 148 140 134 126 122 122 118 114 118 126 133 139 147 156 166 169 167 145 95 60 34 17 359 351
221 184 186 205 213 196 230 151 164 177 188 141 191 254 259 160 205 206 191 172 156 147 140 132 127 122 116 116 118 119 122 125 124 128 126 124 114 83 59 22 1 353 349 344
257 268 194 190 176 198 134 98 51 73 163 206 174 186 209 191 197 178 176 178 163 156 150 141 131 126 122 118 116 116 120 114 110 109 102 87 65 47 12 346 335 340 345 344
197 243 251 184 139 147 184 160 146 198 214 227 200 201 245 201 180 171 166 175 171 162 159 153 147 142 135 133 128 125 113 112 99 83 62 33 17 1 345 345 345 346 346 344
182 204 171 199 199 182 196 198 154 187 185 193 147 225 218 253 251 171 173 173 170 169 163 156 153 149 143 137 133 125 111 96 77 38 15 4 356 350 349 350 347 345 344 343
187 264 325 191 151 145 189 201 140 110 55 92 194 307 237 100 112 148 155 169 175 174 165 163 155 152 151 145 137 128 111 77 41 11 4 351 350 351 347 347 344 342 341 339
131 268 209 138 131 32 170 146 128 26 162 189 248 283 232 193 163 157 162 167 173 176 169 163 158 158 152 150 146 126 93 37 9 354 355 347 346 346 344 342 340 339 338 336
159 182 253 99 207 175 119 153 92 87 151 166 158 247 228 188 182 178 174 169 168 170 170 166 165 164 162 159 146 114 25 5 350 343 345 343 345 343 340 336 334 329 328 328
178 201 209 211 291 301 129 147 144 175 207 120 65 281 341 222 180 173 160 162 176 175 174 173 174 174 168 164 157 38 342 330 331 336 338 338 335 334 329 326 322 321 321 323
164 226 121 340 126 359 152 163 131 88 86 159 155 257 349 132 146 162 159 172 178 178 177 177 179 179 176 177 202 293 312 314 320 325 327 325 324 323 322 321 318 316 317 317
325 176 152 202 76 133 149 154 163 143 127 150 227 297 352 156 172 170 170 178 181 181 181 184 184 185 188 198 232 279 288 296 305 311 310 311 314 318 319 317 314 310 307 308
253 167 112 24 320 155 141 161 167 176 177 171 210 204 225 198 184 176 169 175 181 183 188 190 191 193 199 211 243 273 282 288 294 296 301 309 314 317 318 317 311 302 296 296
73 301 88 61 335 289 152 190 175 177 142 96 113 240 200 166 168 168 181 184 185 190 193 195 196 201 210 224 256 281 285 286 289 295 300 305 312 315 317 312 301 292 288 293
284 146 130 206 348 22 200 205 186 156 175 149 165 222 143 154 176 184 186 188 189 194 196 197 202 208 217 234 264 288 288 284 286 289 294 303 310 314 313 308 300 293 292 295
107 71 25 149 210 156 250 67 317 116 153 171 107 166 160 199 197 199 197 191 195 198 200 203 205 213 224 241 269 287 285 284 286 289 296 304 310 312 309 304 297 290 287 289
79 103 162 151 150 291 26 189 176 152 245 188 166 141 155 144 151 175 198 199 201 201 204 208 213 223 233 251 276 287 286 286 287 292 297 305 308 306 305 300 292 288 285 286
81 345 191 46 109 184 250 255 240 234 316 189 170 168 158 147 138 231 195 197 199 203 208 213 220 229 243 259 277 282 285 284 290 291 297 301 304 305 302 296 290 284 284 292
344 357 93 112 147 285 248 206 150 93 243 180 191 178 169 185 197 205 185 190 197 204 210 216 226 238 251 266 276 282 283 291 288 290 295 300 301 300 297 292 291 292 292 293
176 115 208 91 56 304 168 113 163 211 277 254 199 195 189 191 165 176 183 189 196 202 207 218 233 252 262 266 278 285 287 292 286 292 298 300 299 298 297 297 295 291 291 296
317 184 191 181 214 248 203 214 212 328 296 284 216 200 201 189 173 177 183 188 194 202 212 234 251 260 263 272 283 286 297 286 290 295 299 299 297 297 295 293 289 289 293 297
244 193 201 39 216 241 242 236 247 245 287 317 203 202 198 192 181 178 183 187 192 205 232 260 270 270 270 280 285 288 288 289 294 299 302 298 295 294 291 289 290 292 295 299
212 139 189 265 275 270 268 239 231 231 234 217 182 191 195 200 201 194 190 193 203 232 258 272 274 272 278 281 282 284 286 292 299 299 297 295 295 292 290 290 291 291 293 296
187 188 175 224 223 210 236 241 219 216 218 208 204 199 200 210 214 208 208 215 233 258 273 279 277 278 287 278 274 280 287 289 292 297 302 302 298 294 292 291 289 289 290 294
Wind_Speed_850mb
9 7 24 26 13 19 21 9 2 3 4 14 12 17 11 23 28 25 20 20 22 18 15 13 10 9 9 11 12 12 15 22 27 23 17 9 9 11 13 8 11 16 19 18
5 26 4 3 5 4 26 20 1 8 13 12 12 14 9 10 12 14 17 18 22 21 16 17 16 15 14 13 15 17 21 30 26 20 15 10 7 9 9 8 5 8 10 14
9 5 16 9 7 16 25 35 28 6 8 19 17 6 6 6 16 16 16 16 20 22 23 25 25 23 24 24 24 26 29 28 21 15 12 11 10 6 6 8 11 13 17 20
11 12 8 9 19 13 27 14 40 25 13 7 2 6 9 10 10 13 20 22 24 25 26 30 32 32 31 32 30 29 30 30 24 18 14 10 8 9 12 11 13 14 17 21
10 10 19 15 19 11 11 13 33 35 32 12 14 2 4 22 15 15 30 28 28 29 30 33 36 37 38 37 35 36 33 32 30 24 20 17 13 13 13 12 14 18 21 26
7 3 10 18 11 16 10 14 16 7 7 13 19 17 11 18 32 19 30 40 43 40 38 36 36 37 37 35 32 31 29 30 25 19 16 12 12 11 9 12 17 21 25 28
7 8 4 7 13 11 13 12 7 10 8 9 5 17 12 13 18 27 40 51 49 49 46 44 41 38 35 31 29 25 21 20 18 12 10 9 11 12 15 19 24 27 28 30
11 8 17 10 11 11 36 23 9 14 13 13 9 14 7 5 13 44 62 57 49 48 47 44 42 39 33 28 23 19 15 12 11 9 11 13 16 18 22 25 27 31 33 34
11 8 3 4 5 5 12 21 8 11 2 6 7 5 4 5 14 41 53 60 58 53 48 47 44 38 32 25 20 13 9 7 8 10 13 16 19 22 24 27 29 31 32 32
5 5 3 4 4 10 6 12 5 3 11 8 4 9 11 13 22 25 38 53 59 56 53 48 41 34 29 22 15 10 6 6 9 11 14 17 20 22 25 27 29 31 32 33
7 4 1 6 10 13 5 6 7 6 4 7 6 10 5 28 33 37 47 49 63 62 53 47 40 33 26 18 10 4 4 8 10 12 15 19 22 25 28 30 31 31 32 31
7 4 6 12 8 4 6 10 8 6 5 2 1 8 6 7 22 36 40 53 63 60 55 48 42 34 25 15 7 1 5 9 12 15 18 21 23 26 28 30 31 31 28 25
10 7 6 1 5 8 7 8 9 9 5 4 6 10 10 19 31 42 49 61 64 60 56 50 43 34 23 13 5 5 8 11 14 16 19 22 25 27 30 31 32 29 26 23
3 1 5 10 3 6 9 11 14 11 6 11 8 9 2 13 22 37 53 68 68 63 58 53 45 34 23 14 8 9 12 13 16 18 20 23 26 28 31 32 30 27 24 23
1 6 4 1 8 2 5 15 19 16 11 13 15 17 11 30 27 39 44 60 66 63 60 54 47 36 26 17 13 13 15 17 20 21 23 26 29 32 33 33 31 27 25 24
2 3 3 2 7 6 5 11 19 11 9 3 7 10 5 28 35 49 65 72 73 71 64 57 45 36 28 20 16 17 20 22 24 25 27 29 32 35 36 34 31 29 28 27
1 6 3 6 1 3 3 14 12 9 8 15 11 13 13 9 34 54 68 77 74 71 65 56 46 36 28 22 19 22 25 27 28 29 30 31 34 37 38 36 34 34 33 33
2 4 4 4 4 3 5 1 3 4 5 7 3 5 12 12 22 49 66 76 70 65 58 49 40 35 31 27 23 27 30 31 31 31 33 35 38 41 40 39 38 39 39 39
2 6 3 6 2 8 3 5 9 8 8 13 11 9 14 29 30 21 55 66 62 57 47 38 34 34 31 27 29 34 35 35 34 33 35 37 42 42 42 41 40 41 42 42
10 5 3 7 9 7 5 3 3 2 9 19 19 20 28 35 8 10 59 57 47 38 36 37 38 35 32 31 36 38 37 37 35 35 37 41 43 43 42 41 41 43 43 42
6 7 7 4 2 12 8 4 1 12 9 11 25 38 52 13 16 29 54 51 45 40 39 39 37 35 33 38 38 39 38 36 34 37 40 43 44 43 43 42 40 42 43 44
4 6 2 4 8 9 14 8 12 5 2 5 25 35 51 29 19 34 55 52 47 41 36 33 33 33 37 38 38 39 39 33 37 39 44 46 46 45 43 43 43 44 44 46
5 9 5 12 10 6 27 6 14 3 6 8 24 34 41 33 27 38 51 46 38 31 25 26 30 34 36 36 39 41 34 36 38 44 47 48 48 47 46 45 44 44 44 47
7 9 5 4 5 21 28 36 20 13 9 9 13 28 38 33 29 33 38 39 35 27 22 23 30 34 35 34 39 38 35 37 42 47 48 50 52 50 49 47 45 45 46 49
7 13 6 11 20 24 34 39 38 25 13 6 13 20 33 38 34 37 40 36 26 20 23 29 33 34 35 34 36 34 36 40 45 49 51 51 51 51 50 49 47 47 47 50
25 15 11 11 20 11 10 18 38 47 37 25 20 28 35 37 34 37 37 32 27 26 30 35 35 37 35 34 33 33 38 43 46 49 50 50 51 53 53 51 49 49 49 50
Wind_Direction_850mb
188 185 205 194 217 213 201 156 9 70 125 74 72 97 71 110 105 116 117 116 118 108 100 110 125 148 181 199 197 179 167 171 190 195 215 229 253 260 278 308 317 319 317 321
164 227 203 157 191 194 175 189 338 94 26 86 107 80 79 63 97 127 148 140 121 118 122 118 119 124 135 140 148 156 161 164 179 192 201 214 218 252 280 294 319 354 18 26
188 173 181 185 186 190 196 192 177 196 83 50 120 97 161 83 119 137 138 140 134 135 131 124 123 122 119 123 128 134 142 144 153 168 174 200 210 181 119 79 65 42 18 5
228 246 164 166 224 197 210 189 185 164 164 182 321 201 206 177 179 168 161 163 148 140 134 126 122 122 118 114 118 126 133 139 147 156 166 169 167 145 95 60 34 17 359 351
221 184 186 205 213 196 230 151 164 177 188 141 191 254 259 160 205 206 191 172 156 147 140 132 127 122 116 116 118 119 122 125 124 128 126 124 114 83 59 22 1 353 349 344
257 268 194 190 176 198 134 98 51 73 163 206 174 186 209 191 197 178 176 178 163 156 150 141 131 126 122 118 116 116 120 114 110 109 102 87 65 47 12 346 335 340 345 344
197 243 251 184 139 147 184 160 146 198 214 227 200 201 245 201 180 171 166 175 171 162 159 153 147 142 135 133 128 125 113 112 99 83 62 33 17 1 345 345 345 346 346 344
182 204 171 199 199 182 196 198 154 187 185 193 147 225 218 253 251 171 173 173 170 169 163 156 153 149 143 137 133 125 111 96 77 38 15 4 356 350 349 350 347 345 344 343
187 264 325 191 151 145 189 201 140 110 55 92 194 307 237 100 112 148 155 169 175 174 165 163 155 152 151 145 137 128 111 77 41 11 4 351 350 351 347 347 344 342 341 339
131 268 209 138 131 32 170 146 128 26 162 189 248 283 232 193 163 157 162 167 173 176 169 163 158 158 152 150 146 126 93 37 9 354 355 347 346 346 344 342 340 339 338 336
159 182 253 99 207 175 119 153 92 87 151 166 158 247 228 188 182 178 174 169 168 170 170 166 165 164 162 159 146 114 25 5 350 343 345 343 345 343 340 336 334 329 328 328
178 201 209 211 291 301 129 147 144 175 207 120 65 281 341 222 180 173 160 162 176 175 174 173 174 174 168 164 157 38 342 330 331 336 338 338 335 334 329 326 322 321 321 323
164 226 121 340 126 359 152 163 131 88 86 159 155 257 349 132 146 162 159 172 178 178 177 177 179 179 176 177 202 293 312 314 320 325 327 325 324 323 322 321 318 316 317 317
325 176 152 202 76 133 149 154 163 143 127 150 227 297 352 156 172 170 170 178 181 181 181 184 184 185 188 198 232 279 288 296 305 311 310 311 314 318 319 317 314 310 307 308
253 167 112 24 320 155 141 161 167 176 177 171 210 204 225 198 184 176 169 175 181 183 188 190 191 193 199 211 243 273 282 288 294 296 301 309 314 317 318 317 311 302 296 296
73 301 88 61 335 289 152 190 175 177 142 96 113 240 200 166 168 168 181 184 185 190 193 195 196 201 210 224 256 281 285 286 289 295 300 305 312 315 317 312 301 292 288 293
284 146 130 206 348 22 200 205 186 156 175 149 165 222 143 154 176 184 186 188 189 194 196 197 202 208 217 234 264 288 288 284 286 289 294 303 310 314 313 308 300 293 292 295
107 71 25 149 210 156 250 67 317 116 153 171 107 166 160 199 197 199 197 191 195 198 200 203 205 213 224 241 269 287 285 284 286 289 296 304 310 312 309 304 297 290 287 289
79 103 162 151 150 291 26 189 176 152 245 188 166 141 155 144 151 175 198 199 201 201 204 208 213 223 233 251 276 287 286 286 287 292 297 305 308 306 305 300 292 288 285 286
81 345 191 46 109 184 250 255 240 234 316 189 170 168 158 147 138 231 195 197 199 203 208 213 220 229 243 259 277 282 285 284 290 291 297 301 304 305 302 296 290 284 284 292
344 357 93 112 147 285 248 206 150 93 243 180 191 178 169 185 197 205 185 190 197 204 210 216 226 238 251 266 276 282 283 291 288 290 295 300 301 300 297 292 291 292 292 293
176 115 208 91 56 304 168 113 163 211 277 254 199 195 189 191 165 176 183 189 196 202 207 218 233 252 262 266 278 285 287 292 286 292 298 300 299 298 297 297 295 291 291 296
317 184 191 181 214 248 203 214 212 328 296 284 216 200 201 189 173 177 183 188 194 202 212 234 251 260 263 272 283 286 297 286 290 295 299 299 297 297 295 293 289 289 293 297
244 193 201 39 216 241 242 236 247 245 287 317 203 202 198 192 181 178 183 187 192 205 232 260 270 270 270 280 285 288 288 289 294 299 302 298 295 294 291 289 290 292 295 299
212 139 189 265 275 270 268 239 231 231 234 217 182 191 195 200 201 194 190 193 203 232 258 272 274 272 278 281 282 284 286 292 299 299 297 295 295 292 290 290 291 291 293 296
187 188 175 224 223 210 236 241 219 216 218 208 204 199 200 210 214 208 208 215 233 258 273 279 277 278 287 278 274 280 287 289 292 297 302 302 298 294 292 291 289 289 290 294